Regional Weather Roundup
Issued by NWS

Home | Current Version | Previous Version | Graphics & Text | Print | Product List | Glossary On
Versions: 1 2 3 4 5 6 7 8 9 10 11 12 13 14 15 16 17 18 19 20 21 22 23 24 25 26 27 28 29 30 31 32 33 34 35 36 37 38 39 40 41 42 43 44 45 46 47 48 49 50
000
ASUS43 KLOT 220506
RWRIL

ILLINOIS REGIONAL WEATHER ROUNDUP
NATIONAL WEATHER SERVICE CHICAGO/ROMEOVILLE IL
1100 PM CST SUN DEC 21 2014

NOTE: "FAIR" INDICATES FEW OR NO CLOUDS BELOW 12,000 FEET WITH NO
SIGNIFICANT WEATHER AND/OR OBSTRUCTIONS TO VISIBILITY.

* THESE STATIONS ARE NOT UNDER NWS QUALITY CONTROL. THEY ALSO MAY NOT
  REPORT WEATHER SUCH AS PRECIPITATION OR FOG.

ILZ001-002-007-009-015-016-024-220600-
NORTHWEST ILLINOIS

CITY           SKY/WX    TMP DP  RH WIND       PRES   REMARKS
MOLINE         CLOUDY    36  31  82 SE12G22   29.92S WCI  28
STERLING*      CLOUDY    36  28  75 SE8       29.96S WCI  29
SAVANNA*       CLOUDY    36  31  83 SE12      29.94F WCI  27
$$

ILZ003-004-008-010-011-017-018-220600-
NORTH CENTRAL ILLINOIS

CITY           SKY/WX    TMP DP  RH WIND       PRES   REMARKS
ROCKFORD       CLOUDY    35  29  78 S9        30.00F WCI  28
FREEPORT*      CLOUDY    34  30  86 SE16      29.97S WCI  23
ROCHELLE*      CLOUDY    33  31  91 S13       29.99F WCI  24
DE KALB*       CLOUDY    32  29  88 SE12G20   30.00S WCI  23
PERU*          CLOUDY    35  31  83 SE16      29.99F WCI  25
$$

ILZ005-006-012>014-019>023-220600-
NORTHEAST ILLINOIS

CITY           SKY/WX    TMP DP  RH WIND       PRES   REMARKS
CHICAGO-OHARE  CLOUDY    32  27  81 S10       30.03S WCI  24
CHICAGO-MIDWAY MOCLDY    34  28  79 S10       30.04S WCI  26
AURORA         CLOUDY    34  28  79 SE14      30.02S HAZE    WCI  25
LANSING*       PTCLDY    32  28  84 S10       30.05S HAZE    WCI  23
JOLIET*        MOCLDY    32  28  88 SE6       30.04S FOG     WCI  26
WAUKEGAN       CLOUDY    33  29  85 SE10      30.02S FOG     WCI  25
DUPAGE AIRPORT MOCLDY    33  28  81 SE13      30.01S WCI  24
KANKAKEE*      CLOUDY    31  28  90 SE9       30.04F WCI  23
WHEELING       PTCLDY    33  27  78 S10       30.05R WCI  25
MORRIS*        CLOUDY    34  31  90 SE12      30.01F WCI  25
ROMEOVILLE*    PTCLDY    31  28  90 SE9       30.03F FOG     WCI  23
NORTHERLY ISL    N/A     33  28  82 S13         N/A  WCI  24
$$

LMZ740>746-220600-
SOUTHERN LAKE MICHIGAN

STATION/POSITION SKY/WX   TEMP    WIND        PRES    VSBY  WAVE
                          AIR SEA DIR/SP/G                  HT/PER
                          (F)     (DEG/KT/KT) (MB)    (MI)  (FT/S)
WAUKEGAN HARBOR            34     160/ 20/ 22   N/A
HARRISON CRIB              34     170/ 20/ 24   N/A
BURNHAM HARBOR             33     160/ 10/ 14   N/A
CALUMET HARBOR             33     150/  8/ 14 1016.2F
$$

ILZ025>027-034>036-040-047-049-050-058-095>099-220600-
WEST-CENTRAL ILLINOIS

CITY           SKY/WX    TMP DP  RH WIND       PRES   REMARKS
QUINCY         CLOUDY    39  33  79 SE10      29.90F WCI  32
GALESBURG*     CLOUDY    35  32  88 SE6       29.93S WCI  30
MACOMB*        CLOUDY    37  33  87 SE9       29.95S WCI  30
JACKSONVILLE*  CLOUDY    41  33  73 SE12      29.95S
PITTSFIELD*    CLOUDY    40  34  80 SE9       29.93F
$$

ILZ028>032-037-038-041>044-048-051>054-059>061-220600-
CENTRAL ILLINOIS

CITY           SKY/WX    TMP DP  RH WIND       PRES   REMARKS
PONTIAC        MOCLDY    32  31  94 SE12      30.00F FOG     WCI  23
BLOOMINGTON    CLOUDY    33  30  89 S14       29.99F WCI  23
DECATUR        CLOUDY    35  30  82 SE13      30.00F WCI  26
PEORIA         CLOUDY    37  30  75 S8        29.97S WCI  31
LACON*         CLOUDY    34  30  85 S7        29.98F WCI  28
LINCOLN*       CLOUDY    37  32  81 SE13      29.99S WCI  29
SPRINGFIELD    CLOUDY    39  31  72 SE9       29.97S WCI  33
TAYLORVILLE    CLOUDY    36  32  87 SE12      29.97F WCI  27
$$

ILZ033-039-045-046-055>057-062-063-220600-
EAST-CENTRAL ILLINOIS

CITY           SKY/WX    TMP DP  RH WIND       PRES   REMARKS
CHAMPAIGN      PTCLDY    30  27  88 SE9       30.01F FOG     WCI  22
DANVILLE*      PTCLDY    31  28  89 SE7       30.02S WCI  24
RANTOUL*       PTCLDY    32  30  92 SE12      30.01F FOG     WCI  23
MATTOON        CLEAR     31  27  85 SE12      30.00F WCI  22
PARIS*         CLEAR     31  30  93 E6        30.04F WCI  26
$$

ILZ079-100>102-220600-
SOUTHWEST ILLINOIS

CITY           SKY/WX    TMP DP  RH WIND       PRES   REMARKS
ALTON          CLOUDY    40  32  72 E8        29.96F
BELLEVILLE     CLOUDY    41  33  74 SE6       29.96F
CAHOKIA*       CLOUDY    42  32  67 SE10      29.96F
SPARTA*        CLOUDY    40  31  71 SE10      29.97F
$$

ILZ064>066-069>071-074>076-080>082-084>086-088>090-092>094-220600-
SOUTH-CENTRAL ILLINOIS

CITY           SKY/WX    TMP DP  RH WIND       PRES   REMARKS
CARBONDALE     CLOUDY    39  30  70 E8        29.98F WCI  33
CAIRO*         CLOUDY    43  33  68 E6        29.97F
EFFINGHAM*     PTCLDY    32  27  80 E7        30.03F WCI  26
MARION         CLOUDY    39  30  70 E5        29.99F
MT. VERNON     CLOUDY    37  28  70 E7        30.00F WCI  32
CENTRALIA*     CLOUDY    37  30  75 SE7       29.99F WCI  32
SALEM*         CLOUDY    38  31  74 SE7       30.00F WCI  33
METROPOLIS*    CLOUDY    38  32  77 E5        29.97F WCI  35
$$

ILZ067-068-072-073-078-083-087-091-220600-
SOUTHEAST ILLINOIS

CITY           SKY/WX    TMP DP  RH WIND       PRES   REMARKS
LAWRENCEVILLE  CLEAR     31  27  85 E6        30.04F FOG     WCI  25
FLORA*         CLEAR     33  29  86 E3        30.02F
FAIRFIELD*     CLOUDY    35  30  81 CALM      30.01S
HARRISBURG*    CLOUDY    37  31  79 E6        30.01F WCI  32
ROBINSON*      CLEAR     31  29  89 SE7       30.05F WCI  25
CARMI*         CLOUDY    34  32  92 CALM      30.01F
$$

ABBREVIATIONS USED IN REMARKS
   TC - TEMPERATURE IN CELSIUS
  WCI - WIND CHILL INDEX
   HX - HEAT INDEX
  VSB - VISIBILITY
$$




USA.gov is the U.S. government's official web portal to all federal, state and local government web resources and services.